Weather History for Great Bend, KS

Change the Weather History Date:

Monday, December 3, 2012

  Actual Average Record
Temperature  
Mean Temperature 50 °F -  
Max Temperature 62 °F 47 °F 71 °F (1998)
Min Temperature 37 °F 24 °F 6 °F (1985)
Degree Days  
Heating Degree Days 14    
Moisture  
Dew Point 35 °F    
Average Humidity 54    
Maximum Humidity 76    
Minimum Humidity 39    
Precipitation  
Precipitation 0.00 in - - ()
Sea Level Pressure  
Sea Level Pressure 29.85 in    
Wind  
Wind Speed 16 mph (NNW)    
Max Wind Speed 29 mph    
Max Gust Speed 33 mph    
Visibility 10 miles    
Events      
Averages and records for this station are not official NWS values.
T = Trace of Precipitation, MM = Missing Value Source: NWS Daily Summary

Daily Weather History Graph

Daily Weather History Graph

Search for Another Location

Airport:

Trip Planner

Search our weather history database for the weather conditions in past years. The results will help you decide how hot, cold, wet, or windy it might be!

Date:

Astronomy

Dec. 03, 2012 Rise Set
Actual Time 7:35 AM CST 5:14 PM CST
Civil Twilight 7:06 AM CST 5:44 PM CST
Nautical Twilight 6:33 AM CST 6:17 PM CST
Astronomical Twilight 6:01 AM CST 6:49 PM CST
Moon 10:01 PM CST (12/3) 11:01 AM CST (12/3)
Length of Visible Light 10h 37m
Length of Day
9h 38m
Waning Gibbous, 78% of the Moon is Illuminated
Dec 3
Waning Gibbous
Dec 6
Last Quarter
Dec 13
New
Dec 19
First Quarter
Dec 28
Full

Hourly Weather History & Observations

Time (CST) Temp. Windchill Dew Point Humidity Pressure Visibility Wind Dir Wind Speed Gust Speed Precip Events Conditions
12:15 AM 53.6 °F - 41.0 °F 62% 29.68 in 10.0 mi South 19.6 mph - N/A   Clear
12:55 AM 51.8 °F - 41.0 °F 67% 29.65 in 10.0 mi South 21.9 mph - N/A   Clear
1:15 AM 53.6 °F - 42.8 °F 67% 29.64 in 10.0 mi South 23.0 mph 28.8 mph N/A   Clear
1:35 AM 51.8 °F - 42.8 °F 71% 29.64 in 10.0 mi South 19.6 mph - N/A   Clear
1:55 AM 51.8 °F - 42.8 °F 71% 29.64 in 10.0 mi South 15.0 mph - N/A   Clear
2:15 AM 53.6 °F - 44.6 °F 72% 29.63 in 10.0 mi South 19.6 mph 25.3 mph N/A   Clear
2:35 AM 53.6 °F - 44.6 °F 72% 29.63 in 10.0 mi South 18.4 mph - N/A   Clear
2:55 AM 53.6 °F - 44.6 °F 72% 29.62 in 10.0 mi South 18.4 mph - N/A   Clear
3:15 AM 51.8 °F - 44.6 °F 76% 29.62 in 10.0 mi SSW 16.1 mph - N/A   Clear
3:35 AM 51.8 °F - 42.8 °F 71% 29.60 in 10.0 mi South 16.1 mph - N/A   Clear
3:55 AM 53.6 °F - 42.8 °F 67% 29.61 in 10.0 mi SSW 18.4 mph - N/A   Clear
4:15 AM 53.6 °F - 42.8 °F 67% 29.61 in 10.0 mi SSW 19.6 mph - N/A   Clear
4:35 AM 51.8 °F - 41.0 °F 67% 29.60 in 10.0 mi SSW 16.1 mph - N/A   Clear
4:55 AM 51.8 °F - 39.2 °F 62% 29.61 in 10.0 mi SSW 13.8 mph - N/A   Clear
5:15 AM 50.0 °F - 37.4 °F 62% 29.60 in 10.0 mi SSW 17.3 mph - N/A   Clear
5:35 AM 50.0 °F - 35.6 °F 58% 29.60 in 10.0 mi SSW 16.1 mph - N/A   Clear
5:55 AM 48.2 °F - 35.6 °F 62% 29.62 in 10.0 mi SSW 15.0 mph - N/A   Clear
6:15 AM 48.2 °F - 33.8 °F 58% 29.62 in 10.0 mi SSW 11.5 mph - N/A   Clear
6:35 AM 46.4 °F 41.5 °F 32.0 °F 57% 29.63 in 10.0 mi SSW 10.4 mph - N/A   Clear
6:55 AM 46.4 °F 42.4 °F 32.0 °F 57% 29.64 in 10.0 mi SW 8.1 mph - N/A   Clear
7:15 AM 44.6 °F 39.7 °F 28.4 °F 53% 29.67 in 10.0 mi West 9.2 mph - N/A   Clear
7:35 AM 42.8 °F 37.5 °F 28.4 °F 57% 29.69 in 10.0 mi West 9.2 mph - N/A   Clear
7:55 AM 41.0 °F 38.0 °F 28.4 °F 61% 29.70 in 10.0 mi SW 4.6 mph - N/A   Clear
8:15 AM 42.8 °F 37.5 °F 28.4 °F 57% 29.70 in 10.0 mi SSW 9.2 mph - N/A   Clear
8:35 AM 44.6 °F 40.2 °F 30.2 °F 57% 29.71 in 10.0 mi SW 8.1 mph - N/A   Clear
8:55 AM 46.4 °F 41.5 °F 28.4 °F 50% 29.71 in 10.0 mi WSW 10.4 mph - N/A   Clear
9:15 AM 46.4 °F 39.8 °F 26.6 °F 46% 29.73 in 10.0 mi NW 16.1 mph - N/A   Clear
9:35 AM 46.4 °F 39.5 °F 26.6 °F 46% 29.76 in 10.0 mi NNW 17.3 mph - N/A   Clear
9:55 AM 48.2 °F - 30.2 °F 50% 29.77 in 10.0 mi North 16.1 mph - N/A   Clear
10:15 AM 48.2 °F - 30.2 °F 50% 29.78 in 10.0 mi North 9.2 mph - N/A   Clear
10:35 AM 48.2 °F - 32.0 °F 54% 29.81 in 10.0 mi North 12.7 mph - N/A   Clear
10:55 AM 48.2 °F - 33.8 °F 58% 29.82 in 10.0 mi North 10.4 mph - N/A   Clear
11:15 AM 51.8 °F - 33.8 °F 50% 29.84 in 10.0 mi North 11.5 mph - N/A   Clear
11:35 AM 53.6 °F - 35.6 °F 51% 29.85 in 10.0 mi North 15.0 mph 18.4 mph N/A   Clear
11:55 AM 55.4 °F - 37.4 °F 51% 29.86 in 10.0 mi North 20.7 mph 26.5 mph N/A   Clear
12:15 PM 55.4 °F - 37.4 °F 51% 29.87 in 10.0 mi North 23.0 mph 28.8 mph N/A   Clear
12:35 PM 57.2 °F - 37.4 °F 48% 29.87 in 10.0 mi North 28.8 mph 33.4 mph N/A   Clear
12:55 PM 59.0 °F - 37.4 °F 45% 29.87 in 10.0 mi NNE 23.0 mph 32.2 mph N/A   Clear
1:15 PM 60.8 °F - 39.2 °F 45% 29.88 in 10.0 mi NNE 24.2 mph 28.8 mph N/A   Clear
1:35 PM 62.6 °F - 39.2 °F 42% 29.88 in 10.0 mi North 24.2 mph 28.8 mph N/A   Clear
1:55 PM 62.6 °F - 39.2 °F 42% 29.89 in 10.0 mi North 23.0 mph 32.2 mph N/A   Clear
2:15 PM 62.6 °F - 39.2 °F 42% 29.89 in 10.0 mi North 23.0 mph 31.1 mph N/A   Clear
2:35 PM 62.6 °F - 39.2 °F 42% 29.90 in 10.0 mi North 24.2 mph 29.9 mph N/A   Clear
2:55 PM 62.6 °F - 39.2 °F 42% 29.90 in 10.0 mi North 20.7 mph 29.9 mph N/A   Clear
3:15 PM 62.6 °F - 37.4 °F 39% 29.92 in 10.0 mi NNE 26.5 mph 31.1 mph N/A   Clear
3:35 PM 62.6 °F - 37.4 °F 39% 29.92 in 10.0 mi NNE 19.6 mph 25.3 mph N/A   Clear
3:55 PM 60.8 °F - 37.4 °F 42% 29.93 in 10.0 mi NNE 20.7 mph 25.3 mph N/A   Clear
4:15 PM 60.8 °F - 37.4 °F 42% 29.95 in 10.0 mi North 18.4 mph - N/A   Clear
4:35 PM 57.2 °F - 37.4 °F 48% 29.96 in 10.0 mi North 13.8 mph - N/A   Clear
4:55 PM 57.2 °F - 37.4 °F 48% 29.98 in 10.0 mi North 12.7 mph - N/A   Clear
5:15 PM 55.4 °F - 35.6 °F 47% 29.99 in 10.0 mi North 10.4 mph - N/A   Clear
5:35 PM 55.4 °F - 35.6 °F 47% 30.00 in 10.0 mi North 10.4 mph - N/A   Clear
5:55 PM 55.4 °F - 33.8 °F 44% 30.01 in 10.0 mi North 13.8 mph - N/A   Clear
6:15 PM 53.6 °F - 33.8 °F 47% 30.03 in 10.0 mi North 11.5 mph - N/A   Clear
6:35 PM 53.6 °F - 33.8 °F 47% 30.04 in 10.0 mi North 12.7 mph - N/A   Clear
6:55 PM 53.6 °F - 33.8 °F 47% 30.05 in 10.0 mi North 13.8 mph - N/A   Clear
7:15 PM 53.6 °F - 32.0 °F 44% 30.06 in 10.0 mi North 13.8 mph - N/A   Clear
7:35 PM 51.8 °F - 32.0 °F 47% 30.06 in 10.0 mi North 13.8 mph - N/A   Clear
7:55 PM 51.8 °F - 32.0 °F 47% 30.07 in 10.0 mi North 11.5 mph - N/A   Clear
8:15 PM 51.8 °F - 32.0 °F 47% 30.08 in 10.0 mi NNE 11.5 mph - N/A   Partly Cloudy
8:35 PM 51.8 °F - 30.2 °F 44% 30.09 in 10.0 mi North 9.2 mph - N/A   Partly Cloudy
8:55 PM 50.0 °F - 30.2 °F 47% 30.10 in 10.0 mi North 8.1 mph - N/A   Clear
9:15 PM 48.2 °F - 30.2 °F 50% 30.11 in 10.0 mi NNW 4.6 mph - N/A   Clear
9:35 PM 46.4 °F 43.5 °F 30.2 °F 53% 30.12 in 10.0 mi NNW 5.8 mph - N/A   Clear
9:55 PM 46.4 °F 44.3 °F 30.2 °F 53% 30.12 in 10.0 mi NW 4.6 mph - N/A   Clear
10:15 PM 44.6 °F 40.2 °F 30.2 °F 57% 30.13 in 10.0 mi NNW 8.1 mph - N/A   Clear
10:35 PM 44.6 °F 40.2 °F 30.2 °F 57% 30.13 in 10.0 mi NNW 8.1 mph - N/A   Clear
10:55 PM 44.6 °F 40.2 °F 30.2 °F 57% 30.14 in 10.0 mi NNW 8.1 mph - N/A   Clear
11:15 PM 42.8 °F 39.3 °F 28.4 °F 57% 30.14 in 10.0 mi NNW 5.8 mph - N/A   Clear
11:35 PM 39.2 °F 34.2 °F 28.4 °F 65% 30.14 in 10.0 mi NNW 6.9 mph - N/A   Clear
11:55 PM 37.4 °F 34.9 °F 26.6 °F 65% 30.14 in 10.0 mi NNW 3.5 mph - N/A   Clear